Location: Ambatotampy
(18.8181°S, 47.6186°E)
Time: 18:37:52
(UTC+00:00)

Cosmos 2061 Rocket - Pass Details

Date: 21 January 2021
Orbit: 966 x 1012 km, 82.9° (Epoch: 07 March)

Event Time Altitude Azimuth Distance (km) Brightness Sun altitude
Rises 00:02:26 0° 186° (S) 3,675 7.4 -31.0°
Reaches altitude 10° 00:04:57 10° 186° (S) 2,721 6.7 -30.5°
Enters shadow 00:11:05 84° 245° (WSW) 978 3.8 -29.4°
